DLH578J EDDM-FAOR

Flight info

Callsign DLH578J
Flight time N/A
Altitude 37000
Route TURBU7S TURBU Y107 TOBSO DCT BAKOR DCT VESAL DCT LUMAV DCT TINTO DCT QUENN DCT ABDAB/N0483F360 UL44 TUC/N0482F380 UW411 EBA UG362 BARKA/N0482F370 UM2 DJA/N0480F390 UB730 DIR UA607 FL UM731 IKVOS/N0481F410 UM731 RUDAS UQ25 ITROL UQ44 AVAGO AVAGO1D
Aircraft A359/H-SADE2E3GHIJ1J2J3J4J5M1P2RWXYZ/LB1D1

Departure

Time 2026-05-05 20:54
Airport Munich Airport (EDDM)

Arrival

Time N/A
Airport O.R. Tambo International Airport (FAOR)
Time Latitude Longitude Altitude Speed Heading
2026-05-05 20:18 48.35206 11.79353 1473 ft 0 kts 264°
2026-05-05 20:44 48.35207 11.79363 1461 ft 4 kts 262°
2026-05-05 20:45 48.35222 11.79441 1463 ft 4 kts 240°
2026-05-05 20:45 48.35238 11.79472 1473 ft 4 kts 219°
2026-05-05 20:45 48.35259 11.79488 1461 ft 3 kts 175°
2026-05-05 20:46 48.35266 11.79487 1467 ft 0 kts 173°
2026-05-05 20:48 48.35258 11.79488 1473 ft 7 kts 174°
2026-05-05 20:48 48.35164 11.79504 1467 ft 15 kts 174°
2026-05-05 20:48 48.35045 11.79525 1464 ft 19 kts 173°
2026-05-05 20:48 48.34969 11.79649 1464 ft 16 kts 134°
2026-05-05 20:49 48.34851 11.79699 1466 ft 18 kts 161°
2026-05-05 20:49 48.34812 11.79845 1464 ft 16 kts 84°
2026-05-05 20:49 48.34824 11.80018 1467 ft 17 kts 83°
2026-05-05 20:49 48.34841 11.80234 1462 ft 34 kts 84°
2026-05-05 20:50 48.34730 11.80398 1465 ft 9 kts 173°
2026-05-05 20:50 48.34664 11.80411 1469 ft 0 kts 172°
2026-05-05 20:50 48.34649 11.80414 1464 ft 9 kts 172°
2026-05-05 20:50 48.34645 11.80415 1467 ft 0 kts 172°
2026-05-05 20:51 48.34641 11.80416 1471 ft 6 kts 172°
2026-05-05 20:52 48.34533 11.80394 1465 ft 20 kts 210°
2026-05-05 20:52 48.34461 11.80236 1465 ft 18 kts 257°
2026-05-05 20:52 48.34452 11.80132 1468 ft 0 kts 263°
2026-05-05 20:53 48.34448 11.80069 1474 ft 28 kts 263°
2026-05-05 20:53 48.34400 11.79455 1465 ft 89 kts 263°
2026-05-05 20:53 48.34309 11.78265 1471 ft 139 kts 263°
2026-05-05 20:53 48.34180 11.76605 1568 ft 173 kts 263°
2026-05-05 20:54 48.34020 11.74878 2255 ft 165 kts 261°
2026-05-05 20:54 48.33838 11.73155 2752 ft 171 kts 259°
2026-05-05 20:54 48.33274 11.71565 3203 ft 179 kts 223°
2026-05-05 20:54 48.32100 11.70825 3597 ft 198 kts 186°
2026-05-05 20:55 48.30669 11.70897 3984 ft 213 kts 180°
2026-05-05 20:55 48.29149 11.71103 4453 ft 227 kts 175°
2026-05-05 20:55 48.27600 11.71849 4933 ft 241 kts 156°
2026-05-05 20:55 48.26193 11.73299 5438 ft 250 kts 147°
2026-05-05 20:56 48.24727 11.74867 5759 ft 268 kts 150°
2026-05-05 20:56 48.23133 11.76484 6079 ft 283 kts 151°
2026-05-05 20:56 48.21472 11.78162 6653 ft 289 kts 151°
2026-05-05 20:56 48.19803 11.79854 7394 ft 289 kts 150°
2026-05-05 20:57 48.18115 11.81455 8194 ft 286 kts 158°
2026-05-05 20:57 48.16308 11.82550 9004 ft 281 kts 165°
2026-05-05 20:57 48.14427 11.83487 9786 ft 281 kts 166°
2026-05-05 20:57 48.12576 11.84392 10331 ft 290 kts 165°
2026-05-05 20:58 48.10595 11.85362 10647 ft 306 kts 164°
2026-05-05 20:58 48.08529 11.86384 10986 ft 321 kts 164°
2026-05-05 20:58 48.06359 11.87461 11308 ft 336 kts 163°
2026-05-05 20:58 48.04088 11.88585 11621 ft 350 kts 163°
2026-05-05 20:59 48.01738 11.89749 11998 ft 361 kts 163°
2026-05-05 20:59 47.99331 11.90941 12556 ft 366 kts 163°
2026-05-05 20:59 47.96895 11.92145 13069 ft 372 kts 163°
2026-05-05 20:59 47.94435 11.93362 13603 ft 374 kts 163°
2026-05-05 21:00 47.91921 11.94483 14081 ft 378 kts 169°
2026-05-05 21:00 47.89297 11.94971 14655 ft 384 kts 177°
2026-05-05 21:00 47.86625 11.95071 15266 ft 385 kts 180°
2026-05-05 21:00 47.83932 11.95007 15825 ft 388 kts 182°
2026-05-05 21:01 47.81207 11.94873 16346 ft 393 kts 182°
2026-05-05 21:01 47.78465 11.94723 16864 ft 397 kts 182°
2026-05-05 21:01 47.75690 11.94603 17378 ft 401 kts 181°
2026-05-05 21:01 47.72920 11.94520 17917 ft 403 kts 181°
2026-05-05 21:02 47.70102 11.94462 18426 ft 407 kts 181°
2026-05-05 21:02 47.67252 11.94413 18909 ft 410 kts 181°
2026-05-05 21:02 47.64389 11.94367 19396 ft 413 kts 181°
2026-05-05 21:02 47.61502 11.94322 19955 ft 416 kts 181°
2026-05-05 21:03 47.58605 11.94275 20494 ft 418 kts 181°
2026-05-05 21:03 47.55683 11.94224 21016 ft 420 kts 181°
2026-05-05 21:03 47.52741 11.94172 21511 ft 424 kts 181°
2026-05-05 21:03 47.49777 11.94120 22015 ft 427 kts 181°
2026-05-05 21:04 47.46802 11.94068 22505 ft 430 kts 181°
2026-05-05 21:04 47.43799 11.93945 22970 ft 432 kts 185°
2026-05-05 21:04 47.40829 11.93518 23435 ft 435 kts 187°
2026-05-05 21:04 47.37821 11.92989 23931 ft 437 kts 188°
2026-05-05 21:05 47.34786 11.92401 24375 ft 440 kts 188°
2026-05-05 21:05 47.31741 11.91786 24836 ft 443 kts 189°
2026-05-05 21:05 47.28679 11.91159 25295 ft 445 kts 189°
2026-05-05 21:05 47.25603 11.90531 25733 ft 448 kts 189°
2026-05-05 21:06 47.22510 11.89903 26183 ft 450 kts 189°
2026-05-05 21:06 47.19402 11.89277 26621 ft 452 kts 189°
2026-05-05 21:06 47.16275 11.88654 27045 ft 454 kts 189°
2026-05-05 21:06 47.13139 11.88035 27434 ft 456 kts 189°
2026-05-05 21:07 47.09983 11.87413 27840 ft 459 kts 189°
2026-05-05 21:07 47.06802 11.86785 28233 ft 461 kts 189°
2026-05-05 21:07 47.03632 11.86160 28846 ft 458 kts 190°
2026-05-05 21:07 47.00505 11.85542 29188 ft 460 kts 190°
2026-05-05 21:08 46.97341 11.84731 29505 ft 462 kts 194°
2026-05-05 21:08 46.94195 11.83717 29792 ft 464 kts 195°
2026-05-05 21:08 46.91042 11.82624 30057 ft 467 kts 196°
2026-05-05 21:08 46.87876 11.81520 30321 ft 469 kts 196°
2026-05-05 21:09 46.84687 11.80434 30734 ft 468 kts 195°
2026-05-05 21:09 46.81526 11.79389 31228 ft 465 kts 196°
2026-05-05 21:09 46.78380 11.78375 31705 ft 462 kts 196°
2026-05-05 21:09 46.75239 11.77377 32091 ft 461 kts 196°
2026-05-05 21:10 46.72104 11.76387 32445 ft 460 kts 196°
2026-05-05 21:10 46.68977 11.75407 32855 ft 458 kts 197°
2026-05-05 21:10 46.65875 11.74432 33290 ft 455 kts 197°
2026-05-05 21:10 46.62784 11.73484 33641 ft 455 kts 195°
2026-05-05 21:11 46.59633 11.72890 33914 ft 458 kts 190°
2026-05-05 21:11 46.56491 11.72593 34232 ft 458 kts 189°
2026-05-05 21:11 46.53311 11.72374 34477 ft 458 kts 188°
2026-05-05 21:11 46.50121 11.72195 34710 ft 459 kts 188°
2026-05-05 21:12 46.46952 11.72034 34853 ft 461 kts 188°
2026-05-05 21:12 46.43723 11.71873 35105 ft 460 kts 188°
2026-05-05 21:12 46.40515 11.71711 35376 ft 460 kts 187°
2026-05-05 21:12 46.37311 11.71548 35633 ft 459 kts 188°
2026-05-05 21:13 46.34121 11.71363 35795 ft 459 kts 188°
2026-05-05 21:13 46.30926 11.71153 35975 ft 459 kts 188°
2026-05-05 21:13 46.27736 11.70931 36146 ft 459 kts 188°
2026-05-05 21:13 46.24549 11.70710 36296 ft 460 kts 188°
2026-05-05 21:14 46.21345 11.70494 36462 ft 460 kts 187°
2026-05-05 21:14 46.18155 11.70282 36665 ft 460 kts 187°
2026-05-05 21:14 46.14953 11.70072 36850 ft 460 kts 187°
2026-05-05 21:14 46.11749 11.69866 37015 ft 460 kts 187°
2026-05-05 21:15 46.05376 11.69453 37023 ft 457 kts 187°
2026-05-05 21:15 45.99068 11.69051 37028 ft 456 kts 187°
2026-05-05 21:16 45.92731 11.68647 37025 ft 456 kts 187°
2026-05-05 21:16 45.86374 11.68247 37022 ft 456 kts 187°
2026-05-05 21:17 45.80036 11.67840 37029 ft 456 kts 187°
2026-05-05 21:17 45.73695 11.67429 37026 ft 456 kts 187°
2026-05-05 21:18 45.67398 11.67028 37018 ft 456 kts 187°
2026-05-05 21:18 45.61058 11.66625 37008 ft 456 kts 187°
2026-05-05 21:19 45.54718 11.66217 37008 ft 456 kts 187°
2026-05-05 21:19 45.48387 11.65820 37008 ft 455 kts 187°
2026-05-05 21:20 45.42061 11.65422 37009 ft 455 kts 187°
2026-05-05 21:20 45.35734 11.65019 37009 ft 454 kts 187°
2026-05-05 21:21 45.29454 11.64622 37002 ft 455 kts 188°
2026-05-05 21:21 45.23128 11.64230 36991 ft 455 kts 188°
2026-05-05 21:22 45.16803 11.63832 36989 ft 455 kts 188°
2026-05-05 21:22 45.10478 11.63436 36990 ft 454 kts 188°
2026-05-05 21:23 45.04199 11.63047 36990 ft 454 kts 188°
2026-05-05 21:23 44.97863 11.62656 36990 ft 454 kts 188°
2026-05-05 21:24 44.91554 11.62267 36990 ft 454 kts 188°
2026-05-05 21:24 44.85234 11.61878 36989 ft 454 kts 188°
2026-05-05 21:25 44.78916 11.61429 36990 ft 453 kts 191°
2026-05-05 21:25 44.72680 11.60364 36990 ft 450 kts 194°
2026-05-05 21:26 44.66516 11.59132 36990 ft 451 kts 193°
2026-05-05 21:26 44.60286 11.57976 36990 ft 451 kts 193°
2026-05-05 21:27 44.54052 11.56888 36990 ft 451 kts 193°
2026-05-05 21:27 44.47814 11.55821 36990 ft 452 kts 193°
2026-05-05 21:28 44.41576 11.54756 36990 ft 452 kts 193°
2026-05-05 21:28 44.35330 11.53689 36988 ft 452 kts 193°
2026-05-05 21:29 44.30139 11.52800 36988 ft 452 kts 193°
2026-05-05 21:29 44.23903 11.51742 36988 ft 452 kts 193°
2026-05-05 21:30 44.17652 11.50676 36990 ft 452 kts 193°
2026-05-05 21:30 44.11442 11.49606 36991 ft 453 kts 193°
2026-05-05 21:31 44.05170 11.48544 36993 ft 453 kts 193°
2026-05-05 21:31 43.98910 11.47494 36993 ft 453 kts 193°
2026-05-05 21:32 43.92649 11.46440 36999 ft 453 kts 193°
2026-05-05 21:32 43.86432 11.45393 37004 ft 453 kts 193°
2026-05-05 21:33 43.80166 11.44346 37001 ft 453 kts 193°
2026-05-05 21:33 43.73905 11.43300 36998 ft 453 kts 193°
2026-05-05 21:34 43.67652 11.42246 36998 ft 452 kts 193°
2026-05-05 21:34 43.61391 11.41196 37003 ft 452 kts 193°
2026-05-05 21:35 43.55147 11.40155 37002 ft 452 kts 193°
2026-05-05 21:35 43.48949 11.39124 36998 ft 451 kts 193°
2026-05-05 21:36 43.42702 11.38094 37000 ft 451 kts 193°
2026-05-05 21:36 43.36456 11.37063 37009 ft 451 kts 193°
2026-05-05 21:37 43.30225 11.36032 37008 ft 451 kts 193°
2026-05-05 21:37 43.23988 11.35000 37008 ft 452 kts 193°
2026-05-05 21:38 43.17743 11.33970 37010 ft 451 kts 193°
2026-05-05 21:38 43.11557 11.32948 37018 ft 451 kts 193°
2026-05-05 21:39 43.05321 11.31924 37019 ft 452 kts 192°
2026-05-05 21:39 42.99072 11.30905 37028 ft 452 kts 192°
2026-05-05 21:40 42.92825 11.29890 37026 ft 451 kts 192°
2026-05-05 21:40 42.86590 11.28873 37024 ft 451 kts 192°
2026-05-05 21:41 42.80341 11.27853 37026 ft 452 kts 192°
2026-05-05 21:41 42.74128 11.26845 37018 ft 452 kts 192°
2026-05-05 21:42 42.67884 11.25836 37026 ft 452 kts 192°
2026-05-05 21:42 42.61634 11.24826 37027 ft 452 kts 192°
2026-05-05 21:43 42.55386 11.23818 37034 ft 452 kts 192°
2026-05-05 21:43 42.49136 11.22813 37044 ft 453 kts 192°
2026-05-05 21:44 42.42874 11.21808 37041 ft 453 kts 192°
2026-05-05 21:44 42.36617 11.20806 37049 ft 453 kts 192°
2026-05-05 21:45 42.30400 11.19810 37044 ft 453 kts 192°
2026-05-05 21:45 42.24134 11.18809 37044 ft 453 kts 192°
2026-05-05 21:46 42.17875 11.17812 37047 ft 453 kts 192°
2026-05-05 21:46 42.11612 11.16815 37046 ft 453 kts 192°
2026-05-05 21:47 42.05341 11.15818 37044 ft 454 kts 192°
2026-05-05 21:47 41.99100 11.14831 37032 ft 454 kts 192°
2026-05-05 21:48 41.92826 11.13838 37039 ft 454 kts 191°
2026-05-05 21:48 41.86540 11.12846 37033 ft 454 kts 191°
2026-05-05 21:49 41.80245 11.11856 37040 ft 454 kts 191°
2026-05-05 21:49 41.73963 11.10869 37046 ft 455 kts 191°
2026-05-05 21:50 41.67680 11.09883 37047 ft 454 kts 191°
2026-05-05 21:50 41.61449 11.08909 37043 ft 454 kts 191°
2026-05-05 21:51 41.55166 11.07929 37034 ft 454 kts 191°
2026-05-05 21:51 41.48902 11.06877 37036 ft 452 kts 195°
2026-05-05 21:52 41.39854 11.03605 37026 ft 448 kts 201°
2026-05-05 21:53 41.33929 11.01177 37026 ft 447 kts 201°
2026-05-05 21:53 41.27965 10.98730 37029 ft 448 kts 201°
2026-05-05 21:54 41.22004 10.96308 37027 ft 448 kts 201°
2026-05-05 21:54 41.16035 10.93896 37017 ft 448 kts 201°
2026-05-05 21:55 41.10090 10.91505 37017 ft 448 kts 201°
2026-05-05 21:55 41.04116 10.89101 37010 ft 448 kts 201°
2026-05-05 21:56 40.98136 10.86698 37008 ft 449 kts 200°
2026-05-05 21:56 40.92151 10.84300 37007 ft 449 kts 200°
2026-05-05 21:57 40.86207 10.81921 37001 ft 449 kts 200°
2026-05-05 21:57 40.80226 10.79532 37008 ft 448 kts 200°
2026-05-05 21:58 40.74253 10.77152 37008 ft 449 kts 200°
2026-05-05 21:58 40.68260 10.74769 37008 ft 448 kts 200°
2026-05-05 21:59 40.62318 10.72408 37008 ft 448 kts 200°
2026-05-05 21:59 40.56333 10.70036 37009 ft 449 kts 200°
2026-05-05 22:00 40.50359 10.67674 37008 ft 448 kts 200°
2026-05-05 22:00 40.44380 10.65314 37008 ft 448 kts 200°
2026-05-05 22:01 40.38405 10.62959 37008 ft 449 kts 200°
2026-05-05 22:01 40.32420 10.60606 37008 ft 449 kts 200°
2026-05-05 22:02 40.26441 10.58260 37008 ft 448 kts 200°
2026-05-05 22:02 40.20464 10.55919 37008 ft 449 kts 200°
2026-05-05 22:03 40.14279 10.54566 37009 ft 455 kts 185°
2026-05-05 22:03 40.07920 10.54592 37008 ft 458 kts 182°
2026-05-05 22:04 40.01547 10.54869 37017 ft 458 kts 182°
2026-05-05 22:04 39.95212 10.55161 37018 ft 458 kts 182°
2026-05-05 22:05 39.88825 10.55430 37017 ft 459 kts 182°
2026-05-05 22:05 39.82440 10.55674 37017 ft 459 kts 182°
2026-05-05 22:06 39.76054 10.55912 37018 ft 459 kts 182°
2026-05-05 22:06 39.69670 10.56156 37017 ft 459 kts 182°
2026-05-05 22:07 39.63278 10.56396 37017 ft 459 kts 182°
2026-05-05 22:07 39.56871 10.56635 37017 ft 460 kts 182°
2026-05-05 22:08 39.50463 10.56881 37017 ft 460 kts 182°
2026-05-05 22:08 39.44061 10.57125 37017 ft 460 kts 182°
2026-05-05 22:09 39.37690 10.57366 37017 ft 460 kts 182°
2026-05-05 22:09 39.31281 10.57607 37018 ft 460 kts 182°
2026-05-05 22:10 39.24873 10.57848 37018 ft 461 kts 182°
2026-05-05 22:10 39.18449 10.58090 37027 ft 462 kts 182°
2026-05-05 22:11 39.12013 10.58331 37026 ft 462 kts 182°
2026-05-05 22:11 39.05622 10.58571 37027 ft 462 kts 182°
2026-05-05 22:12 38.99175 10.58811 37027 ft 463 kts 182°
2026-05-05 22:12 38.92734 10.59047 37018 ft 463 kts 182°
2026-05-05 22:13 38.86286 10.59288 37017 ft 463 kts 182°
2026-05-05 22:13 38.79829 10.59529 37017 ft 463 kts 182°
2026-05-05 22:14 38.73375 10.59769 37017 ft 464 kts 182°
2026-05-05 22:14 38.66917 10.60005 37018 ft 464 kts 182°
2026-05-05 22:15 38.60496 10.60244 37017 ft 464 kts 182°
2026-05-05 22:15 38.54034 10.60484 37017 ft 465 kts 181°
2026-05-05 22:16 38.47567 10.60721 37017 ft 465 kts 181°
2026-05-05 22:16 38.41091 10.60959 37017 ft 465 kts 181°
2026-05-05 22:17 38.34621 10.61198 37016 ft 465 kts 181°
2026-05-05 22:17 38.28142 10.61435 37008 ft 465 kts 181°
2026-05-05 22:18 38.21713 10.61669 37008 ft 465 kts 181°
2026-05-05 22:18 38.15228 10.61905 37016 ft 466 kts 181°
2026-05-05 22:19 38.08738 10.62142 37014 ft 466 kts 181°
2026-05-05 22:19 38.03355 10.62341 37008 ft 465 kts 181°
2026-05-05 22:20 37.96872 10.62575 37008 ft 466 kts 181°
2026-05-05 22:20 37.89347 10.62479 37155 ft 461 kts 191°
2026-05-05 22:20 37.87215 10.62019 37293 ft 458 kts 196°
2026-05-05 22:21 37.84137 10.61027 37477 ft 456 kts 198°
2026-05-05 22:21 37.81127 10.59929 37626 ft 455 kts 199°
2026-05-05 22:21 37.78087 10.58755 37775 ft 455 kts 200°
2026-05-05 22:21 37.75065 10.57562 37917 ft 455 kts 200°
2026-05-05 22:22 37.72044 10.56364 38004 ft 456 kts 200°
2026-05-05 22:22 37.65947 10.53971 38008 ft 459 kts 200°
2026-05-05 22:23 37.59843 10.51611 38008 ft 459 kts 200°
2026-05-05 22:23 37.53772 10.49274 38008 ft 459 kts 200°
2026-05-05 22:24 37.47654 10.46921 38008 ft 460 kts 200°
2026-05-05 22:24 37.41534 10.44572 38008 ft 459 kts 200°
2026-05-05 22:25 37.35412 10.42226 38008 ft 460 kts 200°
2026-05-05 22:25 37.29286 10.39884 38008 ft 460 kts 200°
2026-05-05 22:26 37.23167 10.37548 38006 ft 460 kts 200°
2026-05-05 22:26 37.17074 10.35226 37999 ft 460 kts 200°
2026-05-05 22:27 37.10949 10.32894 37999 ft 460 kts 200°
2026-05-05 22:27 37.04817 10.30566 37999 ft 460 kts 200°
2026-05-05 22:28 36.98685 10.28241 37999 ft 460 kts 200°
2026-05-05 22:28 36.92545 10.25917 37999 ft 460 kts 200°
2026-05-05 22:29 36.86436 10.23667 37987 ft 462 kts 197°
2026-05-05 22:29 36.80060 10.22415 37990 ft 465 kts 190°
2026-05-05 22:30 36.73612 10.21537 37989 ft 466 kts 189°
2026-05-05 22:30 36.67151 10.20722 37993 ft 466 kts 189°
2026-05-05 22:31 36.60681 10.19898 37999 ft 466 kts 189°
2026-05-05 22:31 36.54220 10.19054 37999 ft 467 kts 189°
2026-05-05 22:32 36.47764 10.18206 37999 ft 466 kts 189°
2026-05-05 22:32 36.41344 10.17363 38008 ft 467 kts 189°
2026-05-05 22:33 36.34870 10.16519 38008 ft 467 kts 189°
2026-05-05 22:33 36.28412 10.15680 38012 ft 467 kts 189°
2026-05-05 22:34 36.21955 10.14840 38017 ft 466 kts 189°
2026-05-05 22:34 36.15493 10.14002 38017 ft 467 kts 189°
2026-05-05 22:35 36.09068 10.13180 38017 ft 467 kts 189°
2026-05-05 22:35 36.02611 10.12353 38017 ft 467 kts 189°
2026-05-05 22:36 35.96147 10.11527 38017 ft 466 kts 189°
2026-05-05 22:36 35.89689 10.10703 38018 ft 467 kts 189°
2026-05-05 22:37 35.83225 10.09877 38017 ft 467 kts 189°
2026-05-05 22:37 35.76751 10.09047 38017 ft 467 kts 189°
2026-05-05 22:38 35.70275 10.08224 38017 ft 467 kts 189°
2026-05-05 22:38 35.63848 10.07402 38017 ft 467 kts 189°
2026-05-05 22:39 35.57383 10.06585 38017 ft 467 kts 189°
2026-05-05 22:39 35.50912 10.05772 38018 ft 467 kts 189°
2026-05-05 22:40 35.44447 10.04958 38017 ft 467 kts 190°
2026-05-05 22:40 35.37967 10.04142 38017 ft 467 kts 190°
2026-05-05 22:41 35.31530 10.03339 38008 ft 467 kts 190°
2026-05-05 22:41 35.25056 10.02530 38008 ft 467 kts 190°
2026-05-05 22:42 35.18587 10.01716 37999 ft 467 kts 190°
2026-05-05 22:42 35.12100 10.00911 37999 ft 468 kts 190°
2026-05-05 22:43 35.05620 10.00102 37992 ft 468 kts 191°
2026-05-05 22:43 34.99190 9.99296 37989 ft 468 kts 191°
2026-05-05 22:44 34.92715 9.98486 37989 ft 468 kts 191°
2026-05-05 22:44 34.86236 9.97679 37980 ft 468 kts 191°
2026-05-05 22:45 34.79760 9.96874 37981 ft 468 kts 191°
2026-05-05 22:45 34.73280 9.96068 37980 ft 468 kts 191°
2026-05-05 22:46 34.66804 9.95265 37970 ft 467 kts 191°
2026-05-05 22:46 34.60322 9.94461 37966 ft 468 kts 191°
2026-05-05 22:47 34.53841 9.93660 37952 ft 468 kts 191°
2026-05-05 22:47 34.47362 9.92860 37944 ft 468 kts 191°
2026-05-05 22:48 34.40869 9.92131 37952 ft 471 kts 187°
2026-05-05 22:48 34.34342 9.91998 37944 ft 473 kts 186°
2026-05-05 22:49 34.27756 9.91998 37942 ft 473 kts 186°
2026-05-05 22:49 34.21170 9.92018 37940 ft 473 kts 186°
2026-05-05 22:50 34.14588 9.92026 37940 ft 473 kts 186°
2026-05-05 22:50 34.08001 9.92025 37939 ft 473 kts 186°
2026-05-05 22:51 34.01407 9.92024 37935 ft 473 kts 186°
2026-05-05 22:51 33.94818 9.92023 37932 ft 473 kts 186°
2026-05-05 22:52 33.88233 9.92024 37942 ft 473 kts 186°
2026-05-05 22:52 33.81691 9.92022 37934 ft 473 kts 186°
2026-05-05 22:53 33.75112 9.91938 37931 ft 470 kts 190°
2026-05-05 22:53 33.68777 9.90542 37930 ft 460 kts 200°
2026-05-05 22:54 33.62599 9.88534 37931 ft 460 kts 201°
2026-05-05 22:54 33.56435 9.86425 37934 ft 460 kts 201°
2026-05-05 22:55 33.50268 9.84329 37933 ft 460 kts 201°
2026-05-05 22:55 33.44095 9.82258 37935 ft 460 kts 201°
2026-05-05 22:56 33.37921 9.80198 37933 ft 460 kts 201°
2026-05-05 22:56 33.31784 9.78153 37935 ft 461 kts 201°
2026-05-05 22:57 33.25602 9.76097 37932 ft 461 kts 201°
2026-05-05 22:57 33.19418 9.74043 37939 ft 461 kts 201°
2026-05-05 22:58 33.13243 9.71993 37933 ft 461 kts 202°
2026-05-05 22:58 33.07050 9.69943 37938 ft 461 kts 202°
2026-05-05 22:59 33.00905 9.67908 37935 ft 461 kts 202°
2026-05-05 22:59 32.94686 9.65854 37936 ft 461 kts 202°
2026-05-05 23:00 32.85435 9.62803 37931 ft 461 kts 202°
2026-05-05 23:00 32.79249 9.60768 37937 ft 461 kts 202°
2026-05-05 23:01 32.73061 9.58733 37933 ft 461 kts 202°
2026-05-05 23:01 32.66874 9.56700 37932 ft 461 kts 202°
2026-05-05 23:02 32.60690 9.54675 37931 ft 461 kts 202°
2026-05-05 23:02 32.54532 9.52662 37933 ft 461 kts 202°
2026-05-05 23:03 32.48342 9.50639 37928 ft 461 kts 202°
2026-05-05 23:03 32.42144 9.48614 37929 ft 462 kts 202°
2026-05-05 23:04 32.35936 9.46591 37917 ft 461 kts 202°
2026-05-05 23:04 32.29749 9.44577 37916 ft 461 kts 202°
2026-05-05 23:05 32.23586 9.42576 37916 ft 461 kts 202°
2026-05-05 23:05 32.17394 9.40569 37914 ft 461 kts 202°
2026-05-05 23:06 32.11202 9.38563 37915 ft 461 kts 202°
2026-05-05 23:06 32.05009 9.36558 37915 ft 461 kts 202°
2026-05-05 23:07 31.98811 9.34556 37915 ft 461 kts 202°
2026-05-05 23:07 31.92619 9.32559 37915 ft 462 kts 203°
2026-05-05 23:08 31.86405 9.30555 37909 ft 462 kts 203°
2026-05-05 23:08 31.81242 9.28894 37906 ft 463 kts 203°
2026-05-05 23:09 31.75030 9.26897 37907 ft 463 kts 203°
2026-05-05 23:09 31.68167 9.23728 37914 ft 449 kts 216°
2026-05-05 23:10 31.63607 9.20708 37925 ft 448 kts 217°
2026-05-05 23:10 31.58289 9.17001 37924 ft 447 kts 218°
2026-05-05 23:11 31.52905 9.13231 37923 ft 448 kts 218°
2026-05-05 23:11 31.47540 9.09504 37923 ft 448 kts 218°
2026-05-05 23:12 31.42198 9.05816 37929 ft 448 kts 218°
2026-05-05 23:12 31.36814 9.02106 37923 ft 449 kts 218°
2026-05-05 23:13 31.31431 8.98400 37925 ft 449 kts 218°
2026-05-05 23:13 31.26041 8.94696 37920 ft 449 kts 218°
2026-05-05 23:14 31.20657 8.91000 37910 ft 449 kts 218°
2026-05-05 23:14 31.15270 8.87304 37884 ft 449 kts 218°
2026-05-05 23:15 31.09876 8.83610 37883 ft 449 kts 218°
2026-05-05 23:15 31.04510 8.79941 37865 ft 449 kts 218°
2026-05-05 23:16 30.99112 8.76253 37864 ft 450 kts 218°
2026-05-05 23:16 30.93708 8.72569 37864 ft 450 kts 218°
2026-05-05 23:17 30.88297 8.68883 37865 ft 450 kts 218°
2026-05-05 23:17 30.82885 8.65201 37865 ft 450 kts 218°
2026-05-05 23:18 30.77508 8.61546 37864 ft 450 kts 218°
2026-05-05 23:18 30.72097 8.57875 37858 ft 450 kts 218°
2026-05-05 23:19 30.66676 8.54207 37859 ft 451 kts 218°
2026-05-05 23:19 30.61244 8.50528 37861 ft 452 kts 218°
2026-05-05 23:20 30.55812 8.46853 37858 ft 451 kts 218°
2026-05-05 23:20 30.50372 8.43183 37860 ft 451 kts 218°
2026-05-05 23:21 30.44981 8.39551 37860 ft 451 kts 218°
2026-05-05 23:21 30.39569 8.35867 37842 ft 450 kts 218°
2026-05-05 23:22 30.34161 8.32176 37842 ft 451 kts 218°
2026-05-05 23:22 30.28743 8.28490 37842 ft 451 kts 218°
2026-05-05 23:23 30.23317 8.24812 37841 ft 451 kts 218°
2026-05-05 23:23 30.17930 8.21162 37843 ft 452 kts 218°
2026-05-05 23:24 30.12482 8.17522 37842 ft 455 kts 216°
2026-05-05 23:24 30.06428 8.14990 37960 ft 474 kts 199°
2026-05-05 23:25 30.03115 8.14529 38167 ft 484 kts 190°
2026-05-05 23:25 29.99709 8.14707 38316 ft 496 kts 180°
2026-05-05 23:25 29.96281 8.15348 38441 ft 500 kts 177°
2026-05-05 23:25 29.92864 8.16133 38575 ft 501 kts 176°
2026-05-05 23:26 29.86025 8.17845 38781 ft 503 kts 175°
2026-05-05 23:26 29.79166 8.19542 38851 ft 506 kts 176°
2026-05-05 23:27 29.72326 8.21185 38848 ft 505 kts 176°
2026-05-05 23:27 29.65447 8.22811 38851 ft 505 kts 176°
2026-05-05 23:28 29.58557 8.24430 38860 ft 504 kts 176°
2026-05-05 23:28 29.51690 8.26045 38860 ft 504 kts 176°
2026-05-05 23:29 29.44815 8.27664 38860 ft 504 kts 176°
2026-05-05 23:29 29.37945 8.29279 38867 ft 503 kts 176°
2026-05-05 23:30 29.31116 8.30883 38869 ft 504 kts 176°
2026-05-05 23:30 29.24230 8.32495 38868 ft 504 kts 176°
2026-05-05 23:31 29.17404 8.34091 38876 ft 503 kts 176°
2026-05-05 23:31 29.10532 8.35697 38878 ft 503 kts 176°
2026-05-05 23:32 29.03661 8.37302 38878 ft 503 kts 176°
2026-05-05 23:32 28.96803 8.38898 38880 ft 503 kts 176°
2026-05-05 23:33 28.89930 8.40495 38887 ft 503 kts 176°
2026-05-05 23:33 28.83114 8.42081 38886 ft 502 kts 176°
2026-05-05 23:34 28.76258 8.43674 38888 ft 502 kts 176°
2026-05-05 23:34 28.69412 8.45261 38888 ft 502 kts 177°
2026-05-05 23:35 28.62561 8.46845 38888 ft 502 kts 177°
2026-05-05 23:35 28.55705 8.48430 38895 ft 502 kts 177°
2026-05-05 23:36 28.48852 8.50012 38897 ft 502 kts 177°
2026-05-05 23:36 28.42000 8.51592 38896 ft 502 kts 177°
2026-05-05 23:37 28.35143 8.53169 38897 ft 503 kts 177°
2026-05-05 23:37 28.28321 8.54735 38899 ft 503 kts 177°
2026-05-05 23:38 28.21472 8.56310 38896 ft 502 kts 177°
2026-05-05 23:38 28.14624 8.57882 38896 ft 501 kts 177°
2026-05-05 23:39 28.07788 8.59449 38894 ft 501 kts 177°
2026-05-05 23:39 28.00952 8.61037 38903 ft 502 kts 177°
2026-05-05 23:40 27.94109 8.62621 38908 ft 501 kts 176°
2026-05-05 23:40 27.87322 8.64190 38909 ft 501 kts 176°
2026-05-05 23:41 27.80482 8.65772 38907 ft 501 kts 176°
2026-05-05 23:41 27.73642 8.67349 38897 ft 501 kts 176°
2026-05-05 23:42 27.66816 8.68919 38897 ft 501 kts 176°
2026-05-05 23:42 27.59982 8.70492 38898 ft 500 kts 176°
2026-05-05 23:43 27.53161 8.72058 38899 ft 500 kts 176°
2026-05-05 23:43 27.46385 8.73607 38897 ft 500 kts 176°
2026-05-05 23:44 27.39574 8.75166 38896 ft 500 kts 176°
2026-05-05 23:44 27.32757 8.76727 38899 ft 500 kts 176°
2026-05-05 23:45 27.25944 8.78286 38898 ft 499 kts 176°
2026-05-05 23:45 27.19130 8.79841 38896 ft 499 kts 176°
2026-05-05 23:46 27.12314 8.81399 38896 ft 499 kts 176°
2026-05-05 23:46 27.05511 8.82948 38896 ft 498 kts 176°
2026-05-05 23:47 26.98764 8.84481 38888 ft 498 kts 176°
2026-05-05 23:47 26.91969 8.86040 38888 ft 498 kts 176°
2026-05-05 23:48 26.85172 8.87596 38888 ft 498 kts 176°
2026-05-05 23:48 26.78388 8.89147 38887 ft 498 kts 175°
2026-05-05 23:49 26.71600 8.90697 38888 ft 497 kts 175°
2026-05-05 23:49 26.64820 8.92246 38887 ft 497 kts 175°
2026-05-05 23:50 26.58041 8.93791 38889 ft 496 kts 175°
2026-05-05 23:50 26.51316 8.95323 38888 ft 496 kts 175°
2026-05-05 23:51 26.44546 8.96860 38895 ft 496 kts 175°
2026-05-05 23:51 26.37780 8.98396 38898 ft 496 kts 175°
2026-05-05 23:52 26.31013 8.99930 38897 ft 495 kts 175°
2026-05-05 23:52 26.24257 9.01457 38894 ft 495 kts 175°
2026-05-05 23:53 26.17503 9.02987 38896 ft 495 kts 175°
2026-05-05 23:53 26.10800 9.04504 38900 ft 495 kts 175°
2026-05-05 23:54 26.04038 9.06031 38904 ft 495 kts 175°
2026-05-05 23:54 25.97287 9.07559 38905 ft 495 kts 175°
2026-05-05 23:55 25.90538 9.09093 38914 ft 494 kts 174°
2026-05-05 23:55 25.83838 9.10615 38915 ft 494 kts 174°
2026-05-05 23:56 25.77092 9.12144 38918 ft 494 kts 174°
2026-05-05 23:56 25.70357 9.13666 38924 ft 494 kts 174°
2026-05-05 23:57 25.63620 9.15190 38933 ft 494 kts 174°
2026-05-05 23:57 25.56871 9.16717 38934 ft 494 kts 174°
2026-05-05 23:58 25.50126 9.18239 38936 ft 495 kts 174°
2026-05-05 23:58 25.44515 9.19504 38945 ft 495 kts 174°
2026-05-05 23:59 25.37754 9.21027 38953 ft 495 kts 174°
2026-05-05 23:59 25.29898 9.22793 38952 ft 495 kts 174°
2026-05-06 00:00 25.24237 9.24064 38961 ft 496 kts 174°
2026-05-06 00:00 25.17477 9.25582 38962 ft 496 kts 174°
2026-05-06 00:01 25.10707 9.27100 38971 ft 496 kts 174°
2026-05-06 00:01 25.03984 9.28603 38971 ft 496 kts 174°
2026-05-06 00:02 24.97206 9.30120 38980 ft 497 kts 174°
2026-05-06 00:02 24.90428 9.31638 38977 ft 497 kts 174°
2026-05-06 00:03 24.83635 9.33152 38979 ft 498 kts 174°
2026-05-06 00:03 24.76849 9.34663 38992 ft 498 kts 174°
2026-05-06 00:04 24.70054 9.36175 38987 ft 498 kts 174°
2026-05-06 00:04 24.63248 9.37688 38994 ft 499 kts 174°
2026-05-06 00:05 24.53038 9.39957 38994 ft 499 kts 174°
2026-05-06 00:06 24.46274 9.41456 38991 ft 499 kts 174°
2026-05-06 00:06 24.39453 9.42968 38989 ft 500 kts 174°
2026-05-06 00:07 24.32636 9.44486 38987 ft 501 kts 173°
2026-05-06 00:07 24.26038 9.47156 38993 ft 512 kts 157°
2026-05-06 00:08 24.19795 9.50971 38994 ft 515 kts 154°
2026-05-06 00:08 24.13628 9.54971 38994 ft 515 kts 154°
2026-05-06 00:09 24.07460 9.58975 38994 ft 515 kts 154°
2026-05-06 00:09 24.01319 9.62918 38993 ft 515 kts 154°
2026-05-06 00:10 23.95134 9.66865 38987 ft 515 kts 154°
2026-05-06 00:10 23.88944 9.70810 38994 ft 514 kts 154°
2026-05-06 00:11 23.82794 9.74727 38996 ft 514 kts 154°
2026-05-06 00:11 23.76601 9.78669 38999 ft 514 kts 154°
2026-05-06 00:12 23.70412 9.82602 39009 ft 514 kts 154°
2026-05-06 00:12 23.64219 9.86534 38996 ft 514 kts 154°
2026-05-06 00:13 23.58031 9.90459 38996 ft 514 kts 154°
2026-05-06 00:13 23.51845 9.94379 38998 ft 515 kts 154°
2026-05-06 00:14 23.45688 9.98275 39005 ft 515 kts 154°
2026-05-06 00:14 23.39483 10.02197 39005 ft 515 kts 154°
2026-05-06 00:15 23.33284 10.06111 38997 ft 514 kts 154°
2026-05-06 00:15 23.27096 10.10016 38994 ft 513 kts 154°
2026-05-06 00:16 23.20915 10.13912 38992 ft 514 kts 154°
2026-05-06 00:16 23.14726 10.17806 38993 ft 514 kts 154°
2026-05-06 00:17 23.08542 10.21693 38995 ft 513 kts 154°
2026-05-06 00:17 23.02359 10.25576 38999 ft 513 kts 154°
2026-05-06 00:18 22.96214 10.29434 38992 ft 513 kts 154°
2026-05-06 00:18 22.90035 10.33307 38996 ft 513 kts 154°
2026-05-06 00:19 22.83853 10.37178 38983 ft 512 kts 154°
2026-05-06 00:19 22.77673 10.41041 38974 ft 513 kts 154°
2026-05-06 00:20 22.71518 10.44885 38978 ft 512 kts 154°
2026-05-06 00:20 22.65337 10.48740 38973 ft 512 kts 154°
2026-05-06 00:21 22.59182 10.52657 38971 ft 513 kts 152°
2026-05-06 00:21 22.53119 10.56762 38972 ft 514 kts 151°
2026-05-06 00:22 22.47062 10.60883 38971 ft 514 kts 152°
2026-05-06 00:22 22.40996 10.64966 38970 ft 513 kts 152°
2026-05-06 00:23 22.34962 10.69004 38961 ft 513 kts 152°
2026-05-06 00:23 22.28885 10.73060 38962 ft 513 kts 152°
2026-05-06 00:24 22.22801 10.77115 38962 ft 513 kts 152°
2026-05-06 00:24 22.16724 10.81164 38962 ft 513 kts 152°
2026-05-06 00:25 22.10651 10.85208 38961 ft 513 kts 152°
2026-05-06 00:25 22.04585 10.89243 38961 ft 513 kts 152°
2026-05-06 00:26 21.98549 10.93251 38956 ft 513 kts 152°
2026-05-06 00:26 21.92461 10.97293 38953 ft 513 kts 152°
2026-05-06 00:27 21.86367 11.01333 38953 ft 513 kts 152°
2026-05-06 00:27 21.80291 11.05360 38951 ft 513 kts 152°
2026-05-06 00:28 21.74244 11.09363 38952 ft 513 kts 152°
2026-05-06 00:28 21.68157 11.13387 38947 ft 513 kts 152°
2026-05-06 00:29 21.62066 11.17409 38940 ft 513 kts 152°
2026-05-06 00:29 21.55980 11.21420 38946 ft 513 kts 152°
2026-05-06 00:30 21.49898 11.25427 38945 ft 513 kts 152°
2026-05-06 00:30 21.43816 11.29434 38943 ft 513 kts 152°
2026-05-06 00:31 21.37755 11.33422 38938 ft 513 kts 152°
2026-05-06 00:31 21.31674 11.37420 38933 ft 512 kts 152°
2026-05-06 00:32 21.25593 11.41411 38934 ft 513 kts 152°
2026-05-06 00:32 21.19498 11.45409 38935 ft 513 kts 152°
2026-05-06 00:33 21.13406 11.49399 38915 ft 513 kts 152°
2026-05-06 00:33 21.07325 11.53386 38914 ft 513 kts 152°
2026-05-06 00:34 21.01233 11.57371 38933 ft 513 kts 152°
2026-05-06 00:34 20.95174 11.61327 38930 ft 513 kts 152°
2026-05-06 00:35 20.89080 11.65306 38915 ft 513 kts 152°
2026-05-06 00:35 20.82989 11.69277 38915 ft 513 kts 152°
2026-05-06 00:36 20.76899 11.73246 38918 ft 512 kts 151°
2026-05-06 00:36 20.70816 11.77205 38914 ft 512 kts 151°
2026-05-06 00:37 20.64728 11.81161 38915 ft 512 kts 151°
2026-05-06 00:37 20.58644 11.85114 38914 ft 512 kts 151°
2026-05-06 00:38 20.52569 11.89065 38906 ft 511 kts 151°
2026-05-06 00:38 20.46515 11.92987 38905 ft 511 kts 151°
2026-05-06 00:39 20.40434 11.96922 38907 ft 511 kts 151°
2026-05-06 00:39 20.34355 12.00854 38903 ft 511 kts 151°
2026-05-06 00:40 20.28273 12.04787 38903 ft 510 kts 151°
2026-05-06 00:40 20.22239 12.08686 38903 ft 510 kts 151°
2026-05-06 00:41 20.16165 12.12606 38896 ft 510 kts 151°
2026-05-06 00:41 20.10093 12.16516 38897 ft 510 kts 151°
2026-05-06 00:42 20.04019 12.20424 38897 ft 510 kts 151°
2026-05-06 00:42 19.97942 12.24333 38897 ft 510 kts 151°
2026-05-06 00:43 19.91860 12.28244 38897 ft 510 kts 151°
2026-05-06 00:43 19.85787 12.32147 38889 ft 510 kts 151°
2026-05-06 00:44 19.79749 12.36021 38888 ft 509 kts 151°
2026-05-06 00:44 19.73670 12.39913 38887 ft 509 kts 151°
2026-05-06 00:45 19.67594 12.43806 38887 ft 509 kts 152°
2026-05-06 00:45 19.61562 12.47670 38889 ft 510 kts 152°
2026-05-06 00:46 19.55485 12.51554 38888 ft 509 kts 152°
2026-05-06 00:46 19.49420 12.55430 38882 ft 509 kts 152°
2026-05-06 00:47 19.43348 12.59305 38879 ft 508 kts 152°
2026-05-06 00:47 19.37320 12.63146 38876 ft 508 kts 152°
2026-05-06 00:48 19.31264 12.67004 38879 ft 508 kts 152°
2026-05-06 00:48 19.25203 12.70863 38879 ft 508 kts 152°
2026-05-06 00:49 19.19138 12.74718 38879 ft 508 kts 152°
2026-05-06 00:49 19.13076 12.78570 38878 ft 508 kts 152°
2026-05-06 00:50 19.08047 12.81764 38876 ft 508 kts 152°
2026-05-06 00:50 19.00996 12.86235 38870 ft 507 kts 152°
2026-05-06 00:51 18.95660 12.88793 38869 ft 500 kts 164°
2026-05-06 00:51 18.89051 12.91089 38870 ft 499 kts 166°
2026-05-06 00:52 18.82455 12.93222 38868 ft 499 kts 167°
2026-05-06 00:52 18.75812 12.95361 38870 ft 499 kts 167°
2026-05-06 00:53 18.69177 12.97515 38869 ft 499 kts 167°
2026-05-06 00:53 18.62538 12.99681 38860 ft 499 kts 167°
2026-05-06 00:54 18.55913 13.01842 38860 ft 499 kts 167°
2026-05-06 00:54 18.49276 13.04002 38861 ft 498 kts 167°
2026-05-06 00:55 18.42644 13.06161 38859 ft 499 kts 167°
2026-05-06 00:55 18.36057 13.08304 38860 ft 498 kts 167°
2026-05-06 00:56 18.29428 13.10455 38861 ft 498 kts 167°
2026-05-06 00:56 18.22803 13.12605 38860 ft 498 kts 167°
2026-05-06 00:57 18.16172 13.14756 38850 ft 498 kts 167°
2026-05-06 00:57 18.09540 13.16906 38850 ft 497 kts 167°
2026-05-06 00:58 18.02933 13.19046 38851 ft 497 kts 167°
2026-05-06 00:58 17.96318 13.21188 38849 ft 498 kts 167°
2026-05-06 00:59 17.89676 13.23333 38850 ft 500 kts 167°
2026-05-06 00:59 17.83061 13.25470 38851 ft 500 kts 167°
2026-05-06 01:00 17.76404 13.27621 38849 ft 500 kts 167°
2026-05-06 01:00 17.69740 13.29769 38842 ft 501 kts 167°
2026-05-06 01:01 17.63080 13.31916 38841 ft 500 kts 167°
2026-05-06 01:01 17.56416 13.34062 38841 ft 500 kts 167°
2026-05-06 01:02 17.49755 13.36209 38841 ft 501 kts 167°
2026-05-06 01:02 17.43138 13.38336 38841 ft 501 kts 167°
2026-05-06 01:03 17.36550 13.40449 38842 ft 502 kts 167°
2026-05-06 01:03 17.29873 13.42592 38835 ft 502 kts 167°
2026-05-06 01:04 17.23191 13.44736 38831 ft 502 kts 167°
2026-05-06 01:04 17.16492 13.46884 38832 ft 503 kts 167°
2026-05-06 01:05 17.09788 13.49034 38833 ft 504 kts 167°
2026-05-06 01:05 17.03078 13.51181 38832 ft 505 kts 167°
2026-05-06 01:06 16.96349 13.53333 38803 ft 505 kts 167°
2026-05-06 01:06 16.89634 13.55480 38795 ft 505 kts 167°
2026-05-06 01:07 16.82951 13.57615 38793 ft 505 kts 167°
2026-05-06 01:07 16.76215 13.59763 38792 ft 506 kts 167°
2026-05-06 01:08 16.69486 13.61910 38792 ft 505 kts 166°
2026-05-06 01:08 16.62762 13.64055 38791 ft 505 kts 167°
2026-05-06 01:09 16.56034 13.66197 38790 ft 505 kts 166°
2026-05-06 01:09 16.49307 13.68341 38791 ft 505 kts 167°
2026-05-06 01:10 16.42627 13.70463 38798 ft 504 kts 166°
2026-05-06 01:10 16.35905 13.72597 38795 ft 504 kts 166°
2026-05-06 01:11 16.29192 13.74727 38791 ft 504 kts 167°
2026-05-06 01:11 16.22475 13.76857 38795 ft 504 kts 167°
2026-05-06 01:12 16.15775 13.78982 38794 ft 503 kts 166°
2026-05-06 01:12 16.09080 13.81103 38789 ft 503 kts 166°
2026-05-06 01:13 16.02435 13.83207 38786 ft 502 kts 167°
2026-05-06 01:13 15.95743 13.85320 38789 ft 502 kts 167°
2026-05-06 01:14 15.85694 13.88499 38786 ft 503 kts 166°
2026-05-06 01:14 15.78999 13.90616 38783 ft 503 kts 167°
2026-05-06 01:15 15.72306 13.92728 38783 ft 503 kts 166°
2026-05-06 01:15 15.65653 13.94824 38783 ft 503 kts 167°
2026-05-06 01:16 15.58947 13.96938 38789 ft 504 kts 167°
2026-05-06 01:16 15.52227 13.99055 38789 ft 504 kts 166°
2026-05-06 01:17 15.45502 14.01172 38786 ft 504 kts 167°
2026-05-06 01:17 15.38802 14.03280 38790 ft 502 kts 167°
2026-05-06 01:18 15.32163 14.05368 38781 ft 501 kts 167°
2026-05-06 01:18 15.25489 14.07463 38773 ft 501 kts 167°
2026-05-06 01:19 15.18812 14.09558 38781 ft 501 kts 167°
2026-05-06 01:19 15.12134 14.11652 38777 ft 501 kts 167°
2026-05-06 01:20 15.05459 14.13746 38778 ft 500 kts 167°
2026-05-06 01:20 14.98824 14.15823 38781 ft 500 kts 167°
2026-05-06 01:21 14.92154 14.17913 38773 ft 500 kts 167°
2026-05-06 01:21 14.85493 14.19996 38781 ft 500 kts 167°
2026-05-06 01:22 14.78838 14.22075 38780 ft 499 kts 167°
2026-05-06 01:22 14.72185 14.24154 38764 ft 499 kts 167°
2026-05-06 01:23 14.65524 14.26235 38779 ft 500 kts 167°
2026-05-06 01:23 14.58907 14.28300 38763 ft 499 kts 167°
2026-05-06 01:24 14.52255 14.30376 38762 ft 499 kts 167°
2026-05-06 01:24 14.45605 14.32449 38756 ft 499 kts 167°
2026-05-06 01:25 14.38961 14.34517 38775 ft 499 kts 167°
2026-05-06 01:25 14.32310 14.36592 38779 ft 499 kts 167°
2026-05-06 01:26 14.25695 14.38647 38761 ft 499 kts 167°
2026-05-06 01:26 14.19046 14.40714 38763 ft 499 kts 167°
2026-05-06 01:27 14.12400 14.42779 38776 ft 499 kts 167°
2026-05-06 01:27 14.05746 14.44844 38758 ft 499 kts 167°
2026-05-06 01:28 13.99099 14.46906 38757 ft 499 kts 167°
2026-05-06 01:28 13.92448 14.48970 38758 ft 499 kts 167°
2026-05-06 01:29 13.85802 14.51031 38757 ft 499 kts 167°
2026-05-06 01:29 13.79159 14.53089 38757 ft 499 kts 167°
2026-05-06 01:30 13.72504 14.55149 38757 ft 499 kts 167°
2026-05-06 01:30 13.65909 14.57190 38757 ft 499 kts 167°
2026-05-06 01:31 13.59252 14.59249 38757 ft 499 kts 167°
2026-05-06 01:31 13.52588 14.61309 38758 ft 499 kts 167°
2026-05-06 01:32 13.45971 14.63353 38757 ft 499 kts 167°
2026-05-06 01:32 13.39316 14.65407 38758 ft 499 kts 167°
2026-05-06 01:33 13.32653 14.67461 38757 ft 500 kts 167°
2026-05-06 01:33 13.25991 14.69516 38757 ft 499 kts 167°
2026-05-06 01:34 13.19329 14.71569 38748 ft 499 kts 167°
2026-05-06 01:34 13.12709 14.73608 38748 ft 500 kts 167°
2026-05-06 01:35 13.06032 14.75664 38748 ft 501 kts 167°
2026-05-06 01:35 12.99356 14.77718 38748 ft 500 kts 167°
2026-05-06 01:36 12.92675 14.79772 38749 ft 501 kts 167°
2026-05-06 01:36 12.86002 14.81823 38748 ft 501 kts 167°
2026-05-06 01:37 12.79352 14.83865 38748 ft 501 kts 167°
2026-05-06 01:37 12.72665 14.85920 38748 ft 501 kts 167°
2026-05-06 01:38 12.65995 14.87966 38748 ft 501 kts 167°
2026-05-06 01:38 12.59316 14.90012 38748 ft 501 kts 167°
2026-05-06 01:39 12.52626 14.92061 38748 ft 501 kts 167°
2026-05-06 01:39 12.45941 14.94110 38749 ft 502 kts 167°
2026-05-06 01:40 12.39295 14.96145 38748 ft 501 kts 167°
2026-05-06 01:40 12.32605 14.98193 38747 ft 501 kts 167°
2026-05-06 01:41 12.25928 15.00236 38749 ft 501 kts 167°
2026-05-06 01:41 12.19250 15.02277 38748 ft 501 kts 167°
2026-05-06 01:42 12.12556 15.04317 38748 ft 501 kts 168°
2026-05-06 01:42 12.05885 15.06195 38747 ft 499 kts 169°
2026-05-06 01:43 11.99159 15.08011 38749 ft 499 kts 169°
2026-05-06 01:43 11.93571 15.09533 38746 ft 500 kts 169°
2026-05-06 01:44 11.86852 15.11381 38748 ft 500 kts 169°
2026-05-06 01:44 11.79048 15.13540 38749 ft 499 kts 169°
2026-05-06 01:45 11.73412 15.15098 38749 ft 499 kts 169°
2026-05-06 01:45 11.66755 15.16934 38748 ft 499 kts 169°
2026-05-06 01:46 11.60038 15.18787 38748 ft 499 kts 169°
2026-05-06 01:46 11.53322 15.20640 38748 ft 499 kts 169°
2026-05-06 01:47 11.46640 15.22482 38748 ft 499 kts 169°
2026-05-06 01:47 11.39934 15.24328 38748 ft 499 kts 169°
2026-05-06 01:48 11.33226 15.26172 38749 ft 499 kts 169°
2026-05-06 01:48 11.26512 15.28022 38748 ft 499 kts 169°
2026-05-06 01:49 11.19799 15.29871 38754 ft 499 kts 169°
2026-05-06 01:49 11.12773 15.31803 38757 ft 499 kts 169°
2026-05-06 01:50 11.06062 15.33647 38758 ft 499 kts 169°
2026-05-06 01:50 10.99357 15.35487 38759 ft 499 kts 169°
2026-05-06 01:51 10.92643 15.37329 38757 ft 499 kts 169°
2026-05-06 01:51 10.85974 15.39160 38757 ft 499 kts 169°
2026-05-06 01:52 10.79264 15.41001 38758 ft 499 kts 169°
2026-05-06 01:52 10.72554 15.42840 38760 ft 499 kts 169°
2026-05-06 01:53 10.65847 15.44679 38773 ft 498 kts 169°
2026-05-06 01:53 10.59144 15.46515 38764 ft 498 kts 168°
2026-05-06 01:54 10.52488 15.48337 38763 ft 498 kts 168°
2026-05-06 01:54 10.45790 15.50169 38764 ft 498 kts 168°
2026-05-06 01:55 10.39090 15.52004 38774 ft 498 kts 168°
2026-05-06 01:55 10.32399 15.53833 38779 ft 498 kts 168°
2026-05-06 01:56 10.25719 15.55658 38779 ft 497 kts 168°
2026-05-06 01:56 10.19038 15.57482 38777 ft 497 kts 168°
2026-05-06 01:57 10.12351 15.59307 38775 ft 497 kts 168°
2026-05-06 01:57 10.05710 15.61117 38783 ft 497 kts 168°
2026-05-06 01:58 9.99035 15.62936 38787 ft 497 kts 168°
2026-05-06 01:58 9.92353 15.64755 38789 ft 497 kts 168°
2026-05-06 01:59 9.85663 15.66577 38783 ft 497 kts 168°
2026-05-06 01:59 9.78989 15.68393 38793 ft 497 kts 168°
2026-05-06 02:00 9.72347 15.70198 38798 ft 496 kts 168°
2026-05-06 02:00 9.65668 15.72014 38797 ft 497 kts 168°
2026-05-06 02:01 9.58984 15.73830 38804 ft 497 kts 168°
2026-05-06 02:01 9.52305 15.75641 38803 ft 497 kts 168°
2026-05-06 02:02 9.45606 15.77460 38804 ft 497 kts 168°
2026-05-06 02:02 9.38917 15.79277 38814 ft 498 kts 168°
2026-05-06 02:03 9.32268 15.81086 38815 ft 498 kts 168°
2026-05-06 02:03 9.25523 15.82919 38812 ft 498 kts 168°
2026-05-06 02:04 9.18864 15.84726 38820 ft 499 kts 168°
2026-05-06 02:04 9.12147 15.86547 38822 ft 499 kts 168°
2026-05-06 02:05 9.05434 15.88369 38823 ft 499 kts 168°
2026-05-06 02:05 8.98715 15.90194 38832 ft 500 kts 167°
2026-05-06 02:06 8.91989 15.92017 38832 ft 500 kts 167°
2026-05-06 02:06 8.85268 15.93838 38832 ft 500 kts 167°
2026-05-06 02:07 8.78581 15.95649 38838 ft 501 kts 167°
2026-05-06 02:07 8.71843 15.97473 38841 ft 501 kts 167°
2026-05-06 02:08 8.65112 15.99295 38841 ft 501 kts 167°
2026-05-06 02:08 8.58373 16.01119 38848 ft 501 kts 167°
2026-05-06 02:09 8.51635 16.02942 38851 ft 501 kts 166°
2026-05-06 02:09 8.44945 16.04751 38850 ft 501 kts 166°
2026-05-06 02:10 8.38210 16.06571 38858 ft 501 kts 166°
2026-05-06 02:10 8.31475 16.08391 38861 ft 501 kts 166°
2026-05-06 02:11 8.24729 16.10211 38860 ft 501 kts 166°
2026-05-06 02:11 8.17991 16.12029 38863 ft 501 kts 166°
2026-05-06 02:12 8.11255 16.13848 38870 ft 501 kts 166°
2026-05-06 02:12 8.04520 16.15666 38870 ft 501 kts 166°
2026-05-06 02:13 7.97789 16.17483 38872 ft 501 kts 166°
2026-05-06 02:13 7.91089 16.19287 38879 ft 501 kts 166°
2026-05-06 02:14 7.84350 16.21101 38878 ft 501 kts 166°
2026-05-06 02:14 7.77609 16.22914 38877 ft 501 kts 166°
2026-05-06 02:15 7.70855 16.24730 38878 ft 501 kts 166°
2026-05-06 02:15 7.64122 16.26544 38888 ft 500 kts 166°
2026-05-06 02:16 7.57435 16.28344 38889 ft 500 kts 166°
2026-05-06 02:16 7.50701 16.30152 38886 ft 500 kts 166°
2026-05-06 02:17 7.43977 16.31959 38891 ft 500 kts 166°
2026-05-06 02:17 7.37254 16.33768 38897 ft 500 kts 166°
2026-05-06 02:18 7.31672 16.35268 38897 ft 499 kts 166°
2026-05-06 02:18 7.24951 16.37075 38896 ft 500 kts 166°
2026-05-06 02:19 7.18236 16.38877 38898 ft 499 kts 166°
2026-05-06 02:19 7.11532 16.40676 38904 ft 499 kts 166°
2026-05-06 02:20 7.01500 16.43366 38910 ft 498 kts 166°
2026-05-06 02:21 6.94799 16.45165 38908 ft 498 kts 166°
2026-05-06 02:21 6.88092 16.46963 38909 ft 498 kts 166°
2026-05-06 02:22 6.81443 16.48743 38896 ft 497 kts 166°
2026-05-06 02:22 6.74748 16.50537 38898 ft 497 kts 166°
2026-05-06 02:23 6.68056 16.52331 38897 ft 497 kts 166°
2026-05-06 02:23 6.61350 16.54124 38899 ft 497 kts 166°
2026-05-06 02:24 6.54661 16.55916 38894 ft 497 kts 166°
2026-05-06 02:24 6.48027 16.57692 38896 ft 497 kts 166°
2026-05-06 02:25 6.41348 16.59479 38898 ft 497 kts 166°
2026-05-06 02:25 6.34669 16.61267 38896 ft 497 kts 166°
2026-05-06 02:26 6.27988 16.63055 38906 ft 497 kts 166°
2026-05-06 02:26 6.21306 16.64841 38908 ft 497 kts 166°
2026-05-06 02:27 6.14613 16.66628 39172 ft 497 kts 166°
2026-05-06 02:27 6.11272 16.67520 39400 ft 495 kts 166°
2026-05-06 02:27 6.07942 16.68411 39581 ft 495 kts 166°
2026-05-06 02:27 6.04615 16.69301 39736 ft 494 kts 166°
2026-05-06 02:28 6.01333 16.70179 39887 ft 494 kts 166°
2026-05-06 02:28 5.98005 16.71069 40039 ft 494 kts 166°
2026-05-06 02:28 5.94690 16.71955 40211 ft 493 kts 166°
2026-05-06 02:28 5.91383 16.72839 40348 ft 492 kts 166°
2026-05-06 02:29 5.88069 16.73724 40476 ft 492 kts 166°
2026-05-06 02:29 5.84764 16.74606 40612 ft 492 kts 166°
2026-05-06 02:29 5.81456 16.75490 40743 ft 491 kts 166°
2026-05-06 02:29 5.78158 16.76370 40878 ft 491 kts 166°
2026-05-06 02:30 5.74857 16.77252 40902 ft 491 kts 166°
2026-05-06 02:30 5.68250 16.79015 40905 ft 491 kts 166°
2026-05-06 02:31 5.61647 16.80778 40906 ft 491 kts 166°
2026-05-06 02:31 5.55040 16.82541 40911 ft 491 kts 166°
2026-05-06 02:32 5.48485 16.84290 40915 ft 490 kts 166°
2026-05-06 02:32 5.41887 16.86049 40914 ft 491 kts 166°
2026-05-06 02:33 5.35281 16.87811 40915 ft 490 kts 166°
2026-05-06 02:33 5.33099 16.88393 40916 ft 490 kts 166°
2026-05-06 02:34 5.22090 16.91327 40915 ft 490 kts 166°
2026-05-06 02:34 5.15494 16.93085 40916 ft 490 kts 166°
2026-05-06 02:35 5.08904 16.94841 40916 ft 490 kts 166°
2026-05-06 02:35 5.02313 16.96597 40918 ft 490 kts 166°
2026-05-06 02:36 4.95771 16.98343 40916 ft 490 kts 166°
2026-05-06 02:36 4.89180 17.00096 40917 ft 490 kts 166°
2026-05-06 02:37 4.82580 17.01852 40917 ft 489 kts 166°
2026-05-06 02:37 4.75999 17.03604 40915 ft 489 kts 166°
2026-05-06 02:38 4.69452 17.05347 40916 ft 489 kts 166°
2026-05-06 02:38 4.62864 17.07100 40915 ft 489 kts 166°
2026-05-06 02:39 4.56277 17.08852 40914 ft 489 kts 166°
2026-05-06 02:39 4.49702 17.10598 40917 ft 489 kts 166°
2026-05-06 02:40 4.43124 17.12345 40916 ft 489 kts 166°
2026-05-06 02:40 4.36541 17.14093 40915 ft 489 kts 166°
2026-05-06 02:41 4.29995 17.15831 40916 ft 489 kts 166°
2026-05-06 02:41 4.23416 17.17584 40915 ft 489 kts 166°
2026-05-06 02:42 4.16838 17.19331 40913 ft 489 kts 166°
2026-05-06 02:42 4.10251 17.21080 40916 ft 489 kts 166°
2026-05-06 02:43 4.03713 17.22817 40914 ft 489 kts 166°
2026-05-06 02:43 3.97123 17.24568 40916 ft 489 kts 165°
2026-05-06 02:44 3.90538 17.26318 40916 ft 488 kts 165°
2026-05-06 02:44 3.84004 17.28053 40916 ft 488 kts 165°
2026-05-06 02:45 3.77435 17.29798 40916 ft 488 kts 165°
2026-05-06 02:45 3.70861 17.31544 40916 ft 488 kts 165°
2026-05-06 02:46 3.64294 17.33291 40915 ft 488 kts 165°
2026-05-06 02:46 3.57719 17.35033 40915 ft 488 kts 165°
2026-05-06 02:47 3.51153 17.36773 40916 ft 488 kts 165°
2026-05-06 02:47 3.44633 17.38501 40916 ft 488 kts 165°
2026-05-06 02:48 3.38070 17.40242 40915 ft 488 kts 165°
2026-05-06 02:48 3.31507 17.41982 40915 ft 487 kts 165°
2026-05-06 02:49 3.24956 17.43719 40916 ft 487 kts 165°
2026-05-06 02:49 3.18394 17.45458 40916 ft 487 kts 165°
2026-05-06 02:50 3.11837 17.47196 40916 ft 487 kts 165°
2026-05-06 02:50 3.05273 17.48935 40915 ft 487 kts 165°
2026-05-06 02:51 2.98770 17.50658 40915 ft 486 kts 165°
2026-05-06 02:51 2.92223 17.52393 40917 ft 486 kts 165°
2026-05-06 02:52 2.85682 17.54125 40916 ft 486 kts 165°
2026-05-06 02:52 2.79140 17.55858 40915 ft 486 kts 165°
2026-05-06 02:53 2.72608 17.57588 40922 ft 486 kts 165°
2026-05-06 02:53 2.66118 17.59307 40924 ft 485 kts 165°
2026-05-06 02:54 2.59586 17.61036 40925 ft 485 kts 165°
2026-05-06 02:54 2.53062 17.62764 40924 ft 485 kts 165°
2026-05-06 02:55 2.46545 17.64489 40925 ft 484 kts 165°
2026-05-06 02:55 2.40025 17.66215 40925 ft 484 kts 165°
2026-05-06 02:56 2.33553 17.67928 40925 ft 483 kts 165°
2026-05-06 02:56 2.27043 17.69645 40925 ft 483 kts 165°
2026-05-06 02:57 2.20537 17.71361 40924 ft 483 kts 164°
2026-05-06 02:57 2.14021 17.73085 40924 ft 483 kts 164°
2026-05-06 02:58 2.07526 17.74803 40925 ft 483 kts 164°
2026-05-06 02:58 2.01066 17.76511 40925 ft 483 kts 164°
2026-05-06 02:59 1.94570 17.78229 40924 ft 483 kts 164°
2026-05-06 02:59 1.88082 17.79945 40925 ft 483 kts 164°
2026-05-06 03:00 1.81583 17.81664 40925 ft 483 kts 164°
2026-05-06 03:00 1.75087 17.83387 40924 ft 483 kts 164°
2026-05-06 03:01 1.68590 17.85106 40925 ft 483 kts 164°
2026-05-06 03:01 1.62093 17.86825 40925 ft 483 kts 164°
2026-05-06 03:02 1.55631 17.88535 40925 ft 483 kts 164°
2026-05-06 03:02 1.49130 17.90256 40925 ft 483 kts 164°
2026-05-06 03:03 1.42635 17.91976 40924 ft 483 kts 164°
2026-05-06 03:03 1.36137 17.93696 40924 ft 483 kts 164°
2026-05-06 03:04 1.29642 17.95419 40924 ft 483 kts 164°
2026-05-06 03:04 1.23184 17.97124 40933 ft 483 kts 164°
2026-05-06 03:05 1.16691 17.98838 40934 ft 483 kts 164°
2026-05-06 03:05 1.10192 18.00555 40935 ft 483 kts 164°
2026-05-06 03:06 1.03705 18.02269 40934 ft 481 kts 164°
2026-05-06 03:06 0.97235 18.03980 40934 ft 480 kts 164°
2026-05-06 03:07 0.90811 18.05678 40935 ft 480 kts 165°
2026-05-06 03:07 0.84353 18.07385 40933 ft 477 kts 165°
2026-05-06 03:08 0.79017 18.08795 40934 ft 476 kts 165°
2026-05-06 03:08 0.72613 18.10487 40934 ft 475 kts 165°
2026-05-06 03:09 0.66220 18.12177 40934 ft 475 kts 165°
2026-05-06 03:09 0.59825 18.13867 40934 ft 475 kts 165°
2026-05-06 03:10 0.53427 18.15566 40934 ft 474 kts 165°
2026-05-06 03:10 0.47085 18.17251 40934 ft 474 kts 165°
2026-05-06 03:11 0.40707 18.18944 40934 ft 474 kts 165°
2026-05-06 03:11 0.34320 18.20640 40934 ft 474 kts 165°
2026-05-06 03:12 0.27944 18.22334 40934 ft 474 kts 165°
2026-05-06 03:12 0.21561 18.24029 40934 ft 474 kts 165°
2026-05-06 03:13 0.15184 18.25723 40934 ft 474 kts 165°
2026-05-06 03:13 0.08841 18.27408 40934 ft 473 kts 165°
2026-05-06 03:14 0.02472 18.29088 40942 ft 473 kts 166°
2026-05-06 03:14 -0.03988 18.30403 40943 ft 474 kts 169°
2026-05-06 03:15 -0.10494 18.31554 40943 ft 475 kts 169°
2026-05-06 03:15 -0.16993 18.32751 40943 ft 475 kts 168°
2026-05-06 03:16 -0.23486 18.33995 40943 ft 475 kts 168°
2026-05-06 03:16 -0.29973 18.35254 40943 ft 475 kts 168°
2026-05-06 03:17 -0.36468 18.36516 40943 ft 475 kts 168°
2026-05-06 03:17 -0.42960 18.37774 40943 ft 475 kts 168°
2026-05-06 03:18 -0.49426 18.39027 40952 ft 476 kts 168°
2026-05-06 03:18 -0.55934 18.40287 40953 ft 476 kts 168°
2026-05-06 03:19 -0.62443 18.41548 40953 ft 477 kts 168°
2026-05-06 03:19 -0.68962 18.42810 40952 ft 477 kts 168°
2026-05-06 03:20 -0.78716 18.44699 40953 ft 478 kts 168°
2026-05-06 03:20 -0.85244 18.45964 40952 ft 478 kts 168°
2026-05-06 03:21 -0.91775 18.47229 40952 ft 478 kts 168°
2026-05-06 03:21 -0.98314 18.48495 40959 ft 479 kts 168°
2026-05-06 03:22 -1.04859 18.49763 40961 ft 479 kts 168°
2026-05-06 03:22 -1.11427 18.51036 40961 ft 480 kts 168°
2026-05-06 03:23 -1.17986 18.52306 40962 ft 480 kts 168°
2026-05-06 03:23 -1.24555 18.53579 40967 ft 481 kts 168°
2026-05-06 03:24 -1.31086 18.54844 40963 ft 481 kts 168°
2026-05-06 03:24 -1.37661 18.56118 40967 ft 481 kts 168°
2026-05-06 03:25 -1.44242 18.57394 40962 ft 482 kts 168°
2026-05-06 03:25 -1.50830 18.58671 40961 ft 483 kts 168°
2026-05-06 03:26 -1.57433 18.59950 40961 ft 483 kts 168°
2026-05-06 03:26 -1.63991 18.61221 40961 ft 483 kts 168°
2026-05-06 03:27 -1.70595 18.62501 40964 ft 483 kts 168°
2026-05-06 03:27 -1.77208 18.63783 40961 ft 483 kts 168°
2026-05-06 03:28 -1.83808 18.65062 40961 ft 483 kts 168°
2026-05-06 03:28 -1.90416 18.66343 40962 ft 483 kts 168°
2026-05-06 03:29 -1.97029 18.67625 40961 ft 483 kts 168°
2026-05-06 03:29 -2.03588 18.68898 40966 ft 484 kts 168°
2026-05-06 03:30 -2.10213 18.70182 40979 ft 486 kts 168°
2026-05-06 03:30 -2.16856 18.71470 40981 ft 486 kts 168°
2026-05-06 03:31 -2.23502 18.72759 40980 ft 486 kts 168°
2026-05-06 03:31 -2.30147 18.74048 40980 ft 486 kts 168°
2026-05-06 03:32 -2.36802 18.75339 40979 ft 487 kts 168°
2026-05-06 03:32 -2.43411 18.76622 40980 ft 487 kts 168°
2026-05-06 03:33 -2.50065 18.77912 40982 ft 487 kts 168°
2026-05-06 03:33 -2.56732 18.79206 40980 ft 487 kts 168°
2026-05-06 03:34 -2.63389 18.80498 40981 ft 487 kts 168°
2026-05-06 03:34 -2.70047 18.81790 40982 ft 488 kts 168°
2026-05-06 03:35 -2.76720 18.83089 40979 ft 488 kts 168°
2026-05-06 03:35 -2.83393 18.84386 40979 ft 489 kts 168°
2026-05-06 03:36 -2.90075 18.85684 40980 ft 489 kts 168°
2026-05-06 03:36 -2.96719 18.86975 40960 ft 489 kts 168°
2026-05-06 03:37 -3.03408 18.88276 40962 ft 490 kts 168°
2026-05-06 03:37 -3.10099 18.89577 40961 ft 490 kts 168°
2026-05-06 03:38 -3.16809 18.90882 40961 ft 491 kts 168°
2026-05-06 03:38 -3.23519 18.92188 40965 ft 491 kts 168°
2026-05-06 03:39 -3.30232 18.93494 40963 ft 491 kts 168°
2026-05-06 03:39 -3.36950 18.94801 40960 ft 491 kts 168°
2026-05-06 03:40 -3.43627 18.96101 40943 ft 491 kts 168°
2026-05-06 03:40 -3.50348 18.97409 40944 ft 492 kts 168°
2026-05-06 03:41 -3.57080 18.98720 40944 ft 493 kts 168°
2026-05-06 03:41 -3.63814 19.00031 40944 ft 493 kts 168°
2026-05-06 03:42 -3.70552 19.01343 40943 ft 493 kts 168°
2026-05-06 03:42 -3.77244 19.02647 40943 ft 493 kts 168°
2026-05-06 03:43 -3.83979 19.03959 40943 ft 493 kts 168°
2026-05-06 03:43 -3.90710 19.05270 40943 ft 493 kts 168°
2026-05-06 03:44 -3.97451 19.06585 40943 ft 494 kts 168°
2026-05-06 03:44 -4.04212 19.07902 40943 ft 494 kts 169°
2026-05-06 03:45 -4.10972 19.09220 40943 ft 495 kts 169°
2026-05-06 03:45 -4.17738 19.10539 40943 ft 495 kts 169°
2026-05-06 03:46 -4.24517 19.11861 40943 ft 495 kts 169°
2026-05-06 03:46 -4.31244 19.13173 40943 ft 495 kts 169°
2026-05-06 03:47 -4.38012 19.14493 40943 ft 495 kts 169°
2026-05-06 03:47 -4.44785 19.15815 40943 ft 495 kts 169°
2026-05-06 03:48 -4.51555 19.17135 40944 ft 495 kts 169°
2026-05-06 03:48 -4.58328 19.18457 40944 ft 495 kts 169°
2026-05-06 03:49 -4.65097 19.19779 40943 ft 495 kts 169°
2026-05-06 03:49 -4.71831 19.21094 40943 ft 495 kts 169°
2026-05-06 03:50 -4.78606 19.22417 40943 ft 495 kts 169°
2026-05-06 03:50 -4.85378 19.23740 40944 ft 495 kts 169°
2026-05-06 03:51 -4.92145 19.25063 40944 ft 495 kts 169°
2026-05-06 03:51 -4.98918 19.26386 40950 ft 495 kts 169°
2026-05-06 03:52 -5.05684 19.27708 40952 ft 495 kts 169°
2026-05-06 03:52 -5.12414 19.29026 40952 ft 495 kts 169°
2026-05-06 03:53 -5.19045 19.30924 40952 ft 495 kts 162°
2026-05-06 03:53 -5.25588 19.33111 40953 ft 495 kts 161°
2026-05-06 03:54 -5.32111 19.35345 40952 ft 495 kts 161°
2026-05-06 03:54 -5.38642 19.37577 40953 ft 496 kts 161°
2026-05-06 03:55 -5.45178 19.39802 40952 ft 495 kts 161°
2026-05-06 03:55 -5.51674 19.42009 40952 ft 495 kts 161°
2026-05-06 03:56 -5.58209 19.44229 40953 ft 496 kts 161°
2026-05-06 03:56 -5.64754 19.46454 40952 ft 496 kts 161°
2026-05-06 03:57 -5.70242 19.48320 40953 ft 496 kts 161°
2026-05-06 03:57 -5.76737 19.50529 40952 ft 496 kts 161°
2026-05-06 03:58 -5.83289 19.52758 40953 ft 496 kts 161°
2026-05-06 03:58 -5.89905 19.54756 40953 ft 497 kts 166°
2026-05-06 03:59 -5.96648 19.56327 40953 ft 497 kts 167°
2026-05-06 03:59 -6.03397 19.57895 40953 ft 497 kts 167°
2026-05-06 04:00 -6.10069 19.59521 40952 ft 496 kts 166°
2026-05-06 04:00 -6.16781 19.61195 40952 ft 496 kts 166°
2026-05-06 04:01 -6.23495 19.62876 40953 ft 496 kts 166°
2026-05-06 04:01 -6.30200 19.64552 40952 ft 496 kts 166°
2026-05-06 04:02 -6.36873 19.66218 40953 ft 496 kts 166°
2026-05-06 04:02 -6.43577 19.67893 40952 ft 497 kts 166°
2026-05-06 04:03 -6.50293 19.69570 40952 ft 497 kts 166°
2026-05-06 04:03 -6.57006 19.71247 40960 ft 497 kts 166°
2026-05-06 04:04 -6.63719 19.72925 40967 ft 497 kts 166°
2026-05-06 04:04 -6.70388 19.74593 40960 ft 496 kts 166°
2026-05-06 04:05 -6.77108 19.76274 40966 ft 496 kts 166°
2026-05-06 04:05 -6.83836 19.77860 40946 ft 496 kts 168°
2026-05-06 04:06 -6.90585 19.79324 40944 ft 496 kts 168°
2026-05-06 04:06 -6.97296 19.80787 40943 ft 496 kts 168°
2026-05-06 04:07 -7.04036 19.82280 40944 ft 496 kts 168°
2026-05-06 04:07 -7.10794 19.83788 40943 ft 496 kts 168°
2026-05-06 04:08 -7.17545 19.85297 40944 ft 496 kts 168°
2026-05-06 04:08 -7.24285 19.86802 40944 ft 496 kts 168°
2026-05-06 04:09 -7.31028 19.88328 40943 ft 496 kts 168°
2026-05-06 04:09 -7.37765 19.89868 40944 ft 496 kts 168°
2026-05-06 04:10 -7.44457 19.91397 40944 ft 496 kts 168°
2026-05-06 04:10 -7.51198 19.92934 40943 ft 497 kts 168°
2026-05-06 04:11 -7.57938 19.94469 40944 ft 497 kts 168°
2026-05-06 04:11 -7.64693 19.96009 40943 ft 497 kts 168°
2026-05-06 04:12 -7.71441 19.97548 40944 ft 497 kts 168°
2026-05-06 04:12 -7.78192 19.99088 40943 ft 497 kts 168°
2026-05-06 04:13 -7.84900 20.00619 40943 ft 497 kts 168°
2026-05-06 04:13 -7.91657 20.02161 40943 ft 497 kts 168°
2026-05-06 04:14 -7.98415 20.03705 40943 ft 497 kts 168°
2026-05-06 04:14 -8.05163 20.05259 40943 ft 497 kts 168°
2026-05-06 04:15 -8.11914 20.06831 40943 ft 497 kts 168°
2026-05-06 04:15 -8.18618 20.08391 40943 ft 497 kts 168°
2026-05-06 04:16 -8.25363 20.09959 40943 ft 497 kts 168°
2026-05-06 04:16 -8.32109 20.11527 40943 ft 497 kts 168°
2026-05-06 04:17 -8.38851 20.13093 40943 ft 497 kts 168°
2026-05-06 04:17 -8.45593 20.14661 40943 ft 497 kts 168°
2026-05-06 04:18 -8.52332 20.16228 40943 ft 497 kts 168°
2026-05-06 04:18 -8.59072 20.17797 40943 ft 497 kts 168°
2026-05-06 04:19 -8.65774 20.19357 40943 ft 497 kts 168°
2026-05-06 04:19 -8.72512 20.20926 40943 ft 496 kts 168°
2026-05-06 04:20 -8.79245 20.22494 40944 ft 496 kts 168°
2026-05-06 04:20 -8.85984 20.24064 40943 ft 496 kts 168°
2026-05-06 04:21 -8.92713 20.25633 40949 ft 496 kts 168°
2026-05-06 04:21 -8.99444 20.27202 41011 ft 496 kts 168°
2026-05-06 04:22 -9.06168 20.28771 41015 ft 496 kts 169°
2026-05-06 04:23 -9.16218 20.31117 41026 ft 496 kts 169°
2026-05-06 04:23 -9.22941 20.32687 41015 ft 496 kts 169°
2026-05-06 04:24 -9.29676 20.34261 41026 ft 496 kts 169°
2026-05-06 04:24 -9.36404 20.35833 41023 ft 496 kts 169°
2026-05-06 04:25 -9.43133 20.37406 41027 ft 496 kts 169°
2026-05-06 04:25 -9.49859 20.38979 41024 ft 496 kts 169°
2026-05-06 04:26 -9.56588 20.40553 41028 ft 496 kts 169°
2026-05-06 04:26 -9.63277 20.42119 41030 ft 496 kts 169°
2026-05-06 04:27 -9.69942 20.43950 41026 ft 498 kts 162°
2026-05-06 04:27 -9.76429 20.46429 41016 ft 498 kts 160°
2026-05-06 04:28 -9.82873 20.49019 41014 ft 499 kts 160°
2026-05-06 04:28 -9.89324 20.51628 41014 ft 498 kts 160°
2026-05-06 04:29 -9.95772 20.54224 41029 ft 498 kts 160°
2026-05-06 04:29 -10.02232 20.56819 41030 ft 498 kts 160°
2026-05-06 04:30 -10.08641 20.59392 41025 ft 499 kts 160°
2026-05-06 04:30 -10.15095 20.61984 41027 ft 498 kts 160°